Weather History for Banff, AB

Change the Weather History Date:

Sunday, March 24, 2013

  Actual Average Record
Temperature  
Mean Temperature 16 °F -  
Max Temperature 33 °F - - ()
Min Temperature 0 °F - - ()
Degree Days  
Heating Degree Days 48    
Moisture  
Dew Point -0 °F    
Average Humidity 50    
Maximum Humidity 76    
Minimum Humidity 25    
Precipitation  
Precipitation 0.03 in - - ()
Sea Level Pressure  
Sea Level Pressure 30.38 in    
Wind  
Wind Speed 5 mph ()    
Max Wind Speed 12 mph    
Max Gust Speed 18 mph    
T = Trace of Precipitation, MM = Missing Value Source: Averaged Metar Reports

Daily Weather History Graph

Daily Weather History Graph

Search for Another Location

Airport:

Trip Planner

Search our weather history database for the weather conditions in past years. The results will help you decide how hot, cold, wet, or windy it might be!

Date:

Astronomy

Mar. 24, 2013 Rise Set
Actual Time 7:34 AM MDT 8:02 PM MDT
Civil Twilight 7:01 AM MDT 8:35 PM MDT
Nautical Twilight 6:22 AM MDT 9:15 PM MDT
Astronomical Twilight 5:40 AM MDT 9:57 PM MDT
Moon 5:22 PM MDT (3/24) 6:03 AM MDT (3/24)
Length of Visible Light 13h 34m
Length of Day
12h 27m
Waxing Gibbous, 92% of the Moon is Illuminated
Mar 24
Waxing Gibbous
Mar 27
Full
Apr 2
Last Quarter
Apr 10
New
Apr 18
First Quarter

Hourly Weather History & Observations

Time (MDT) Temp. Windchill Dew Point Humidity Pressure Visibility Wind Dir Wind Speed Gust Speed Precip Events Conditions
12:00 AM 10.9 °F 4.7 °F 1.8 °F 67% 30.42 in - NW 3.5 mph - N/A   Unknown
2:00 AM 7.3 °F - -0.4 °F 71% 30.43 in - WNW 2.3 mph - 0.03 in   Unknown
3:00 AM 5.4 °F - -1.3 °F 74% 30.44 in - WNW 1.2 mph - N/A   Unknown
4:00 AM 5.2 °F - -0.9 °F 76% 30.44 in - SW 2.3 mph - N/A   Unknown
5:00 AM 4.1 °F -5.1 °F -2.2 °F 75% 30.45 in - SW 4.6 mph - N/A   Unknown
6:00 AM 3.2 °F -6.2 °F -3.5 °F 74% 30.46 in - WSW 4.6 mph - N/A   Unknown
7:00 AM 1.8 °F -7.8 °F -4.4 °F 76% 30.47 in - WSW 4.6 mph - N/A   Unknown
8:00 AM 0.7 °F -10.7 °F -5.4 °F 75% 30.49 in - SW 5.8 mph - N/A   Unknown
9:00 AM 4.6 °F -7.4 °F -3.8 °F 68% 30.48 in - SW 6.9 mph - N/A   Unknown
10:00 AM 9.5 °F -2.6 °F -2.6 °F 58% 30.46 in - WSW 8.1 mph - N/A   Unknown
11:00 AM 15.6 °F 4.0 °F -1.7 °F 47% 30.43 in - SW 9.2 mph - N/A   Unknown
12:00 PM 23.5 °F 14.5 °F 1.9 °F 39% 30.39 in - SW 8.1 mph - N/A   Unknown
1:00 PM 27.5 °F 20.2 °F 0.7 °F 32% 30.36 in - SW 6.9 mph - N/A   Unknown
2:00 PM 29.3 °F 20.8 °F 0.1 °F 29% 30.34 in - SW 9.2 mph - N/A   Unknown
3:00 PM 31.3 °F 23.3 °F 0.3 °F 27% 30.32 in - SW 9.2 mph - N/A   Unknown
4:00 PM 31.8 °F 22.8 °F 2.1 °F 28% 30.30 in - SW 11.5 mph 18.4 mph N/A   Unknown
5:00 PM 33.1 °F 26.9 °F 0.9 °F 25% 30.30 in - WSW 6.9 mph - N/A   Unknown
6:00 PM 31.5 °F 22.9 °F 1.4 °F 28% 30.30 in - SW 10.4 mph - N/A   Unknown
7:00 PM 31.8 °F 26.2 °F 1.6 °F 28% 30.29 in - WSW 5.8 mph - N/A   Unknown
8:00 PM 28.8 °F 22.6 °F 2.1 °F 32% 30.29 in - WSW 5.8 mph - N/A   Unknown
9:00 PM 26.6 °F 22.6 °F 2.7 °F 36% 30.28 in - West 3.5 mph - N/A   Unknown
10:00 PM 24.1 °F 19.7 °F 3.9 °F 42% 30.28 in - SW 3.5 mph - N/A   Unknown
11:00 PM 21.4 °F 16.6 °F 3.4 °F 46% 30.27 in - WSW 3.5 mph - N/A   Unknown